Погода в Соболеве

Россия / Камчатский край     54°17′55″N   155°56′45″E
темп.,
°C
ветер,
м/с
пор.,
м/с
влажн.,
%
обл.,
%
осадки,
мм/ч
давл.,
гПа
погр.,
м
7 июля, чт
чт700:00+11ююз3486100 0.0 101381
03:00+11ю3585100 0.0 1013137
06:00+10ю359055 0.0 1013100
09:00+15ю4470100 0.0 1012317
12:00+19ююз5455100 0.0 1012524
15:00+20юз44515 0.0 1011484
18:00+18юз4457100 0.0 1011330
21:00+14юз347513 0.0 1011133
8 июля, пт
пт800:00+10ю45875 0.0 101276
03:00+10ю46881 0.0 1012110
06:00+9ю369618 0.0 1012133
09:00+15ююз45745 0.0 1011351
12:00+19ююз55650 0.0 1010512
15:00+19юз54691 0.0 1010500
18:00+19юз44710 0.0 1010385
21:00+14ююз45872 0.0 1010165
9 июля, сб
сб900:00+10ю359834 0.0 101073
03:00+11ю359893 0.0 1010115
06:00+11ю359896 0.0 1010159
09:00+15ююз3490100 0.0 1011292
12:00+19юз337778 0.0 1010418
15:00+20з42745 0.0 1010392
18:00+19сз33764 0.0 1011292
21:00+14сз559367 0.0 1012152
10 июля, вс
вс1000:00+13ссз349884 0.0 101279
03:00+13ссз4599100 0.0 101296
06:00+13ссз469765 0.0 1013102
09:00+19ссз457925 0.0 1013288
12:00+26ссз67558 0.0 1013734
15:00+27сз785017 0.0 1012611
18:00+25ссз8105826 0.0 1013463
21:00+21ссз6117016 0.0 1013220
11 июля, пн
пн1100:00+17ссз59763 0.0 1014118
03:00+16ссз47750 0.0 101484
06:00+16с46760 0.0 101482
09:00+22ссз34600 0.0 1015293
12:00+26ссз45480 0.0 1015723
15:00+28сз66450 0.0 1014932
18:00+24сз78590 0.0 1014430
21:00+18сз57740 0.0 1015115